Multibeam Report for NBP1202


Ship Name: Nathaniel B. Palmer
Chief Scientist: Owen, Harold
United States Antarctic Program
Source Organization: Marine Geoscience Data System (MGDS)
Start Date: 2012-02-11
End Date: 2012-02-27


View ISO Metadata

Visit the full NCEI Bathymetry Viewer


Multibeam Bathymetry

Cruise Details

Project:
Instrument: Kongsberg EM120

Data Quality

Number of Files: 352
Number of Records: 125188
BATHYMETRY DATA Quantity Percentage
Number of Beams 23910908 100%
Number of Good Beams 19864941 83.08%
Number of Zero Beams 4045967 16.92%
Number of Flagged Beams 0 0%
AMPLITUDE DATA Quantity Percentage
Number of Beams 23910908 100%
Number of Good Beams 19864941 83.08%
Number of Zero Beams 4045967 16.92%
Number of Flagged Beams 0 0%
SIDESCAN DATA Quantity Percentage
Number of Pixels 128192512 100%
Number of Good Pixels 78194644 61.0%
Number of Zero Pixels 0 0%
Number of Flagged Pixels 49997868 39.0%

Navigation Totals

Total Time: 321.304 hours
Total Track Length: 5610.1216 km
Average Speed: 17.46 km/hr (9.4276 knots)

Cruise Bounds

Northern Extent: -55.308502
Southern Extent: -77.819786
Western Extent: 165.66939
Eastern Extent: -78.626976

Limits

Minimum Sonar Depth 6.36 Maximum Sonar Depth 7.9
Minimum Altitude 0 Maximum Altitude 6315.04
Minimum Depth 318.99 Maximum Depth 6943.3701
Minimum Amplitude 0 Maximum Amplitude 27
Minimum Sidescan 0 Maximum Sidescan 61.5

File Information

Full Resolution Bathymetry as collected (raw): 349

Files File Size Description
0001_20120211_025646_raw.all.mb56.gz 4.44MB Simrad multibeam vendor format
0001_20120211_031311_raw.all.mb56.gz 17.09MB Simrad multibeam vendor format
0002_20120211_041311_raw.all.mb56.gz 14.17MB Simrad multibeam vendor format
0003_20120211_051311_raw.all.mb56.gz 16.85MB Simrad multibeam vendor format
0004_20120211_061311_raw.all.mb56.gz 16.85MB Simrad multibeam vendor format
0005_20120211_071311_raw.all.mb56.gz 17.19MB Simrad multibeam vendor format
0006_20120211_081311_raw.all.mb56.gz 16.37MB Simrad multibeam vendor format
0007_20120211_091311_raw.all.mb56.gz 13.54MB Simrad multibeam vendor format
0008_20120211_101311_raw.all.mb56.gz 13.40MB Simrad multibeam vendor format
0009_20120211_111311_raw.all.mb56.gz 17.80MB Simrad multibeam vendor format
0010_20120211_121311_raw.all.mb56.gz 17.31MB Simrad multibeam vendor format
0011_20120211_131311_raw.all.mb56.gz 16.63MB Simrad multibeam vendor format
0012_20120211_141311_raw.all.mb56.gz 16.09MB Simrad multibeam vendor format
0013_20120211_151311_raw.all.mb56.gz 18.03MB Simrad multibeam vendor format
0014_20120211_161311_raw.all.mb56.gz 18.40MB Simrad multibeam vendor format
0015_20120211_171311_raw.all.mb56.gz 18.98MB Simrad multibeam vendor format
0016_20120211_181311_raw.all.mb56.gz 18.91MB Simrad multibeam vendor format
0017_20120211_191311_raw.all.mb56.gz 19.06MB Simrad multibeam vendor format
0018_20120211_201311_raw.all.mb56.gz 19.28MB Simrad multibeam vendor format
0019_20120211_211311_raw.all.mb56.gz 20.29MB Simrad multibeam vendor format
0020_20120211_221311_raw.all.mb56.gz 20.48MB Simrad multibeam vendor format
0021_20120211_231311_raw.all.mb56.gz 20.34MB Simrad multibeam vendor format
0022_20120212_001311_raw.all.mb56.gz 20.10MB Simrad multibeam vendor format
0023_20120212_011311_raw.all.mb56.gz 19.99MB Simrad multibeam vendor format
0024_20120212_021311_raw.all.mb56.gz 20.17MB Simrad multibeam vendor format
0025_20120212_031311_raw.all.mb56.gz 20.55MB Simrad multibeam vendor format
0026_20120212_041311_raw.all.mb56.gz 20.50MB Simrad multibeam vendor format
0027_20120212_051311_raw.all.mb56.gz 20.28MB Simrad multibeam vendor format
0028_20120212_061311_raw.all.mb56.gz 19.53MB Simrad multibeam vendor format
0029_20120212_071311_raw.all.mb56.gz 19.37MB Simrad multibeam vendor format
0030_20120212_081311_raw.all.mb56.gz 4.60MB Simrad multibeam vendor format
0031_20120212_082746_raw.all.mb56.gz 11.53MB Simrad multibeam vendor format
0032_20120212_090640_raw.all.mb56.gz 18.96MB Simrad multibeam vendor format
0033_20120212_100640_raw.all.mb56.gz 18.84MB Simrad multibeam vendor format
0034_20120212_110640_raw.all.mb56.gz 19.00MB Simrad multibeam vendor format
0035_20120212_120640_raw.all.mb56.gz 19.38MB Simrad multibeam vendor format
0036_20120212_130640_raw.all.mb56.gz 13.93MB Simrad multibeam vendor format
0037_20120212_140640_raw.all.mb56.gz 10.68MB Simrad multibeam vendor format
0038_20120212_150640_raw.all.mb56.gz 10.13MB Simrad multibeam vendor format
0039_20120212_160640_raw.all.mb56.gz 9.84MB Simrad multibeam vendor format
0040_20120212_170640_raw.all.mb56.gz 9.65MB Simrad multibeam vendor format
0041_20120212_180640_raw.all.mb56.gz 9.75MB Simrad multibeam vendor format
0042_20120212_190640_raw.all.mb56.gz 9.77MB Simrad multibeam vendor format
0043_20120212_200640_raw.all.mb56.gz 9.83MB Simrad multibeam vendor format
0044_20120212_210640_raw.all.mb56.gz 9.47MB Simrad multibeam vendor format
0045_20120212_220640_raw.all.mb56.gz 9.16MB Simrad multibeam vendor format
0046_20120212_230641_raw.all.mb56.gz 9.14MB Simrad multibeam vendor format
0047_20120213_000641_raw.all.mb56.gz 9.26MB Simrad multibeam vendor format
0048_20120213_010641_raw.all.mb56.gz 9.17MB Simrad multibeam vendor format
0049_20120213_020641_raw.all.mb56.gz 9.27MB Simrad multibeam vendor format
0050_20120213_030641_raw.all.mb56.gz 9.22MB Simrad multibeam vendor format
0051_20120213_040641_raw.all.mb56.gz 9.18MB Simrad multibeam vendor format
0052_20120213_050641_raw.all.mb56.gz 9.14MB Simrad multibeam vendor format
0053_20120213_060641_raw.all.mb56.gz 8.98MB Simrad multibeam vendor format
0054_20120213_070641_raw.all.mb56.gz 8.67MB Simrad multibeam vendor format
0055_20120213_080641_raw.all.mb56.gz 8.90MB Simrad multibeam vendor format
0056_20120213_090641_raw.all.mb56.gz 8.84MB Simrad multibeam vendor format
0057_20120213_100641_raw.all.mb56.gz 8.73MB Simrad multibeam vendor format
0058_20120213_110641_raw.all.mb56.gz 8.77MB Simrad multibeam vendor format
0059_20120213_120641_raw.all.mb56.gz 8.83MB Simrad multibeam vendor format
0060_20120213_130641_raw.all.mb56.gz 8.62MB Simrad multibeam vendor format
0061_20120213_140641_raw.all.mb56.gz 8.79MB Simrad multibeam vendor format
0062_20120213_150641_raw.all.mb56.gz 8.79MB Simrad multibeam vendor format
0063_20120213_160641_raw.all.mb56.gz 8.68MB Simrad multibeam vendor format
0064_20120213_170641_raw.all.mb56.gz 8.67MB Simrad multibeam vendor format
0065_20120213_180641_raw.all.mb56.gz 8.53MB Simrad multibeam vendor format
0066_20120213_190641_raw.all.mb56.gz 8.65MB Simrad multibeam vendor format
0067_20120213_200641_raw.all.mb56.gz 8.77MB Simrad multibeam vendor format
0068_20120213_210641_raw.all.mb56.gz 8.68MB Simrad multibeam vendor format
0069_20120213_220641_raw.all.mb56.gz 8.73MB Simrad multibeam vendor format
0070_20120213_230641_raw.all.mb56.gz 8.65MB Simrad multibeam vendor format
0071_20120214_000641_raw.all.mb56.gz 8.62MB Simrad multibeam vendor format
0072_20120214_010641_raw.all.mb56.gz 8.63MB Simrad multibeam vendor format
0073_20120214_020641_raw.all.mb56.gz 8.64MB Simrad multibeam vendor format
0074_20120214_030641_raw.all.mb56.gz 8.59MB Simrad multibeam vendor format
0075_20120214_040641_raw.all.mb56.gz 8.55MB Simrad multibeam vendor format
0076_20120214_050641_raw.all.mb56.gz 8.59MB Simrad multibeam vendor format
0077_20120214_060641_raw.all.mb56.gz 8.53MB Simrad multibeam vendor format
0078_20120214_070641_raw.all.mb56.gz 8.54MB Simrad multibeam vendor format
0079_20120214_080641_raw.all.mb56.gz 8.54MB Simrad multibeam vendor format
0080_20120214_090640_raw.all.mb56.gz 8.54MB Simrad multibeam vendor format
0081_20120214_100640_raw.all.mb56.gz 8.53MB Simrad multibeam vendor format
0082_20120214_110640_raw.all.mb56.gz 8.57MB Simrad multibeam vendor format
0083_20120214_120640_raw.all.mb56.gz 8.76MB Simrad multibeam vendor format
0084_20120214_130640_raw.all.mb56.gz 8.81MB Simrad multibeam vendor format
0085_20120214_140640_raw.all.mb56.gz 8.87MB Simrad multibeam vendor format
0086_20120214_150640_raw.all.mb56.gz 8.75MB Simrad multibeam vendor format
0087_20120214_160640_raw.all.mb56.gz 8.82MB Simrad multibeam vendor format
0088_20120214_170640_raw.all.mb56.gz 8.82MB Simrad multibeam vendor format
0089_20120214_180640_raw.all.mb56.gz 8.71MB Simrad multibeam vendor format
0090_20120214_190640_raw.all.mb56.gz 8.81MB Simrad multibeam vendor format
0091_20120214_200640_raw.all.mb56.gz 8.67MB Simrad multibeam vendor format
0092_20120214_210640_raw.all.mb56.gz 8.59MB Simrad multibeam vendor format
0093_20120214_220640_raw.all.mb56.gz 8.54MB Simrad multibeam vendor format
0094_20120214_230640_raw.all.mb56.gz 8.55MB Simrad multibeam vendor format
0095_20120215_000640_raw.all.mb56.gz 8.66MB Simrad multibeam vendor format
0096_20120215_010640_raw.all.mb56.gz 8.69MB Simrad multibeam vendor format
0097_20120215_020640_raw.all.mb56.gz 8.63MB Simrad multibeam vendor format
0098_20120215_030640_raw.all.mb56.gz 8.48MB Simrad multibeam vendor format
0099_20120215_040640_raw.all.mb56.gz 8.34MB Simrad multibeam vendor format
0100_20120215_050640_raw.all.mb56.gz 8.38MB Simrad multibeam vendor format
0101_20120215_060640_raw.all.mb56.gz 8.55MB Simrad multibeam vendor format
0102_20120215_070640_raw.all.mb56.gz 8.59MB Simrad multibeam vendor format
0103_20120215_080640_raw.all.mb56.gz 8.59MB Simrad multibeam vendor format
0104_20120215_090640_raw.all.mb56.gz 8.61MB Simrad multibeam vendor format
0105_20120215_100640_raw.all.mb56.gz 8.68MB Simrad multibeam vendor format
0106_20120215_110640_raw.all.mb56.gz 8.68MB Simrad multibeam vendor format
0107_20120215_120640_raw.all.mb56.gz 1.26MB Simrad multibeam vendor format
0108_20120215_121523_raw.all.mb56.gz 194.0KB Simrad multibeam vendor format
0109_20120215_121634_raw.all.mb56.gz 8.66MB Simrad multibeam vendor format
0110_20120215_131634_raw.all.mb56.gz 8.64MB Simrad multibeam vendor format
0111_20120215_141634_raw.all.mb56.gz 8.65MB Simrad multibeam vendor format
0112_20120215_151634_raw.all.mb56.gz 8.65MB Simrad multibeam vendor format
0113_20120215_161634_raw.all.mb56.gz 8.41MB Simrad multibeam vendor format
0114_20120215_171634_raw.all.mb56.gz 8.49MB Simrad multibeam vendor format
0115_20120215_181634_raw.all.mb56.gz 8.44MB Simrad multibeam vendor format
0116_20120215_191634_raw.all.mb56.gz 8.55MB Simrad multibeam vendor format
0117_20120215_201634_raw.all.mb56.gz 8.46MB Simrad multibeam vendor format
0118_20120215_211634_raw.all.mb56.gz 8.40MB Simrad multibeam vendor format
0119_20120215_221634_raw.all.mb56.gz 8.36MB Simrad multibeam vendor format
0120_20120215_231633_raw.all.mb56.gz 8.36MB Simrad multibeam vendor format
0121_20120216_001633_raw.all.mb56.gz 8.40MB Simrad multibeam vendor format
0122_20120216_011633_raw.all.mb56.gz 5.44MB Simrad multibeam vendor format
0122_20120216_015653_raw.all.mb56.gz 8.43MB Simrad multibeam vendor format
0123_20120216_025654_raw.all.mb56.gz 8.42MB Simrad multibeam vendor format
0124_20120216_035653_raw.all.mb56.gz 8.40MB Simrad multibeam vendor format
0125_20120216_045653_raw.all.mb56.gz 8.41MB Simrad multibeam vendor format
0126_20120216_055653_raw.all.mb56.gz 8.23MB Simrad multibeam vendor format
0127_20120216_065653_raw.all.mb56.gz 8.25MB Simrad multibeam vendor format
0128_20120216_075653_raw.all.mb56.gz 2.37MB Simrad multibeam vendor format
0128_20120216_081537_raw.all.mb56.gz 8.48MB Simrad multibeam vendor format
0129_20120216_091537_raw.all.mb56.gz 8.65MB Simrad multibeam vendor format
0130_20120216_101537_raw.all.mb56.gz 8.61MB Simrad multibeam vendor format
0131_20120216_111537_raw.all.mb56.gz 8.66MB Simrad multibeam vendor format
0132_20120216_121537_raw.all.mb56.gz 8.67MB Simrad multibeam vendor format
0133_20120216_131537_raw.all.mb56.gz 8.56MB Simrad multibeam vendor format
0134_20120216_141537_raw.all.mb56.gz 8.49MB Simrad multibeam vendor format
0135_20120216_151537_raw.all.mb56.gz 8.38MB Simrad multibeam vendor format
0136_20120216_161537_raw.all.mb56.gz 8.42MB Simrad multibeam vendor format
0137_20120216_171537_raw.all.mb56.gz 8.30MB Simrad multibeam vendor format
0138_20120216_181538_raw.all.mb56.gz 9.97MB Simrad multibeam vendor format
0139_20120216_191538_raw.all.mb56.gz 10.94MB Simrad multibeam vendor format
0140_20120216_201538_raw.all.mb56.gz 10.49MB Simrad multibeam vendor format
0141_20120216_211538_raw.all.mb56.gz 8.05MB Simrad multibeam vendor format
0142_20120216_221538_raw.all.mb56.gz 9.51MB Simrad multibeam vendor format
0143_20120216_231538_raw.all.mb56.gz 9.30MB Simrad multibeam vendor format
0144_20120217_001538_raw.all.mb56.gz 9.15MB Simrad multibeam vendor format
0145_20120217_011538_raw.all.mb56.gz 9.47MB Simrad multibeam vendor format
0146_20120217_021538_raw.all.mb56.gz 9.67MB Simrad multibeam vendor format
0147_20120217_031538_raw.all.mb56.gz 9.31MB Simrad multibeam vendor format
0148_20120217_041538_raw.all.mb56.gz 9.33MB Simrad multibeam vendor format
0149_20120217_051538_raw.all.mb56.gz 9.26MB Simrad multibeam vendor format
0150_20120217_061538_raw.all.mb56.gz 9.52MB Simrad multibeam vendor format
0151_20120217_071538_raw.all.mb56.gz 9.40MB Simrad multibeam vendor format
0152_20120217_081538_raw.all.mb56.gz 9.32MB Simrad multibeam vendor format
0153_20120217_091538_raw.all.mb56.gz 5.53MB Simrad multibeam vendor format
0154_20120217_094925_raw.all.mb56.gz 34.7KB Simrad multibeam vendor format
0155_20120217_094937_raw.all.mb56.gz 37.3KB Simrad multibeam vendor format
0156_20120217_094949_raw.all.mb56.gz 27.7KB Simrad multibeam vendor format
0157_20120217_094955_raw.all.mb56.gz 9.38MB Simrad multibeam vendor format
0158_20120217_104955_raw.all.mb56.gz 8.52MB Simrad multibeam vendor format
0159_20120217_114606_raw.all.mb56.gz 134.6KB Simrad multibeam vendor format
0160_20120217_115620_raw.all.mb56.gz 9.43MB Simrad multibeam vendor format
0161_20120217_125623_raw.all.mb56.gz 9.38MB Simrad multibeam vendor format
0162_20120217_135623_raw.all.mb56.gz 9.17MB Simrad multibeam vendor format
0163_20120217_145623_raw.all.mb56.gz 9.14MB Simrad multibeam vendor format
0164_20120217_155623_raw.all.mb56.gz 3.58MB Simrad multibeam vendor format
0165_20120217_161928_raw.all.mb56.gz 48.3KB Simrad multibeam vendor format
0166_20120217_161944_raw.all.mb56.gz 152.3KB Simrad multibeam vendor format
0167_20120217_162043_raw.all.mb56.gz 56.4KB Simrad multibeam vendor format
0168_20120217_162102_raw.all.mb56.gz 27.6KB Simrad multibeam vendor format
0169_20120217_162111_raw.all.mb56.gz 9.79MB Simrad multibeam vendor format
0170_20120217_172111_raw.all.mb56.gz 9.52MB Simrad multibeam vendor format
0171_20120217_182111_raw.all.mb56.gz 9.60MB Simrad multibeam vendor format
0172_20120217_192111_raw.all.mb56.gz 9.59MB Simrad multibeam vendor format
0173_20120217_202111_raw.all.mb56.gz 9.75MB Simrad multibeam vendor format
0174_20120217_212111_raw.all.mb56.gz 9.70MB Simrad multibeam vendor format
0175_20120217_222111_raw.all.mb56.gz 9.77MB Simrad multibeam vendor format
0176_20120217_232111_raw.all.mb56.gz 9.62MB Simrad multibeam vendor format
0177_20120218_002111_raw.all.mb56.gz 10.04MB Simrad multibeam vendor format
0178_20120218_012111_raw.all.mb56.gz 2.14MB Simrad multibeam vendor format
0179_20120218_020444_raw.all.mb56.gz 9.10MB Simrad multibeam vendor format
0180_20120218_030153_raw.all.mb56.gz 9.44MB Simrad multibeam vendor format
0181_20120218_040153_raw.all.mb56.gz 9.17MB Simrad multibeam vendor format
0182_20120218_050153_raw.all.mb56.gz 9.02MB Simrad multibeam vendor format
0183_20120218_060153_raw.all.mb56.gz 8.95MB Simrad multibeam vendor format
0184_20120218_070153_raw.all.mb56.gz 8.78MB Simrad multibeam vendor format
0185_20120218_080153_raw.all.mb56.gz 8.81MB Simrad multibeam vendor format
0186_20120218_090153_raw.all.mb56.gz 8.91MB Simrad multibeam vendor format
0187_20120218_100153_raw.all.mb56.gz 9.01MB Simrad multibeam vendor format
0188_20120218_110153_raw.all.mb56.gz 8.92MB Simrad multibeam vendor format
0189_20120218_120153_raw.all.mb56.gz 9.16MB Simrad multibeam vendor format
0190_20120218_130153_raw.all.mb56.gz 9.27MB Simrad multibeam vendor format
0191_20120218_140153_raw.all.mb56.gz 8.89MB Simrad multibeam vendor format
0192_20120218_150153_raw.all.mb56.gz 9.21MB Simrad multibeam vendor format
0193_20120218_160153_raw.all.mb56.gz 9.61MB Simrad multibeam vendor format
0194_20120218_170153_raw.all.mb56.gz 9.14MB Simrad multibeam vendor format
0195_20120218_180153_raw.all.mb56.gz 9.06MB Simrad multibeam vendor format
0196_20120218_190153_raw.all.mb56.gz 8.95MB Simrad multibeam vendor format
0197_20120218_200153_raw.all.mb56.gz 9.20MB Simrad multibeam vendor format
0198_20120218_210153_raw.all.mb56.gz 9.29MB Simrad multibeam vendor format
0199_20120218_220153_raw.all.mb56.gz 9.39MB Simrad multibeam vendor format
0200_20120218_230153_raw.all.mb56.gz 10.21MB Simrad multibeam vendor format
0201_20120219_000153_raw.all.mb56.gz 9.25MB Simrad multibeam vendor format
0202_20120219_010153_raw.all.mb56.gz 9.34MB Simrad multibeam vendor format
0203_20120219_020153_raw.all.mb56.gz 9.03MB Simrad multibeam vendor format
0204_20120219_030153_raw.all.mb56.gz 8.87MB Simrad multibeam vendor format
0205_20120219_040153_raw.all.mb56.gz 8.67MB Simrad multibeam vendor format
0206_20120219_050153_raw.all.mb56.gz 8.58MB Simrad multibeam vendor format
0207_20120219_060153_raw.all.mb56.gz 2.66MB Simrad multibeam vendor format
0208_20120219_062506_raw.all.mb56.gz 9.39MB Simrad multibeam vendor format
0209_20120219_072508_raw.all.mb56.gz 9.50MB Simrad multibeam vendor format
0210_20120219_082508_raw.all.mb56.gz 9.95MB Simrad multibeam vendor format
0211_20120219_092508_raw.all.mb56.gz 3.78MB Simrad multibeam vendor format
0212_20120219_121916_raw.all.mb56.gz 13.99MB Simrad multibeam vendor format
0213_20120219_180715_raw.all.mb56.gz 10.22MB Simrad multibeam vendor format
0214_20120219_190715_raw.all.mb56.gz 10.41MB Simrad multibeam vendor format
0215_20120219_200715_raw.all.mb56.gz 10.07MB Simrad multibeam vendor format
0216_20120219_210715_raw.all.mb56.gz 8.91MB Simrad multibeam vendor format
0217_20120219_220715_raw.all.mb56.gz 8.40MB Simrad multibeam vendor format
0218_20120219_230715_raw.all.mb56.gz 8.17MB Simrad multibeam vendor format
0219_20120220_000715_raw.all.mb56.gz 8.30MB Simrad multibeam vendor format
0220_20120220_010715_raw.all.mb56.gz 9.00MB Simrad multibeam vendor format
0221_20120220_020715_raw.all.mb56.gz 8.82MB Simrad multibeam vendor format
0222_20120220_030715_raw.all.mb56.gz 9.02MB Simrad multibeam vendor format
0223_20120220_040715_raw.all.mb56.gz 8.92MB Simrad multibeam vendor format
0224_20120220_050715_raw.all.mb56.gz 9.03MB Simrad multibeam vendor format
0225_20120220_060714_raw.all.mb56.gz 9.43MB Simrad multibeam vendor format
0226_20120220_070714_raw.all.mb56.gz 8.97MB Simrad multibeam vendor format
0227_20120220_080715_raw.all.mb56.gz 8.89MB Simrad multibeam vendor format
0228_20120220_090714_raw.all.mb56.gz 8.84MB Simrad multibeam vendor format
0229_20120220_100714_raw.all.mb56.gz 8.90MB Simrad multibeam vendor format
0230_20120220_110714_raw.all.mb56.gz 8.87MB Simrad multibeam vendor format
0231_20120220_120714_raw.all.mb56.gz 8.55MB Simrad multibeam vendor format
0232_20120220_130714_raw.all.mb56.gz 8.44MB Simrad multibeam vendor format
0233_20120220_140714_raw.all.mb56.gz 8.55MB Simrad multibeam vendor format
0234_20120220_150714_raw.all.mb56.gz 8.35MB Simrad multibeam vendor format
0235_20120220_160714_raw.all.mb56.gz 8.47MB Simrad multibeam vendor format
0236_20120220_170714_raw.all.mb56.gz 8.37MB Simrad multibeam vendor format
0237_20120220_180714_raw.all.mb56.gz 8.40MB Simrad multibeam vendor format
0238_20120220_190714_raw.all.mb56.gz 8.48MB Simrad multibeam vendor format
0239_20120220_200714_raw.all.mb56.gz 8.30MB Simrad multibeam vendor format
0240_20120220_210714_raw.all.mb56.gz 8.42MB Simrad multibeam vendor format
0241_20120220_220714_raw.all.mb56.gz 8.48MB Simrad multibeam vendor format
0242_20120220_230714_raw.all.mb56.gz 8.47MB Simrad multibeam vendor format
0243_20120221_000714_raw.all.mb56.gz 8.45MB Simrad multibeam vendor format
0244_20120221_010714_raw.all.mb56.gz 8.46MB Simrad multibeam vendor format
0245_20120221_020714_raw.all.mb56.gz 8.47MB Simrad multibeam vendor format
0246_20120221_030714_raw.all.mb56.gz 8.62MB Simrad multibeam vendor format
0247_20120221_040714_raw.all.mb56.gz 8.52MB Simrad multibeam vendor format
0248_20120221_050714_raw.all.mb56.gz 8.54MB Simrad multibeam vendor format
0249_20120221_060714_raw.all.mb56.gz 8.69MB Simrad multibeam vendor format
0250_20120221_070714_raw.all.mb56.gz 8.61MB Simrad multibeam vendor format
0251_20120221_080714_raw.all.mb56.gz 8.61MB Simrad multibeam vendor format
0252_20120221_090714_raw.all.mb56.gz 8.61MB Simrad multibeam vendor format
0253_20120221_100714_raw.all.mb56.gz 8.48MB Simrad multibeam vendor format
0254_20120221_110714_raw.all.mb56.gz 8.50MB Simrad multibeam vendor format
0255_20120221_120714_raw.all.mb56.gz 8.43MB Simrad multibeam vendor format
0256_20120221_130714_raw.all.mb56.gz 8.38MB Simrad multibeam vendor format
0257_20120221_140714_raw.all.mb56.gz 8.33MB Simrad multibeam vendor format
0258_20120221_150714_raw.all.mb56.gz 8.46MB Simrad multibeam vendor format
0259_20120221_160714_raw.all.mb56.gz 8.38MB Simrad multibeam vendor format
0260_20120221_170714_raw.all.mb56.gz 8.37MB Simrad multibeam vendor format
0261_20120221_180714_raw.all.mb56.gz 8.40MB Simrad multibeam vendor format
0262_20120221_190714_raw.all.mb56.gz 8.30MB Simrad multibeam vendor format
0263_20120221_200714_raw.all.mb56.gz 8.38MB Simrad multibeam vendor format
0264_20120221_210714_raw.all.mb56.gz 8.30MB Simrad multibeam vendor format
0265_20120221_220714_raw.all.mb56.gz 8.28MB Simrad multibeam vendor format
0266_20120221_230714_raw.all.mb56.gz 8.23MB Simrad multibeam vendor format
0267_20120222_000714_raw.all.mb56.gz 8.29MB Simrad multibeam vendor format
0268_20120222_010714_raw.all.mb56.gz 8.26MB Simrad multibeam vendor format
0269_20120222_020714_raw.all.mb56.gz 8.23MB Simrad multibeam vendor format
0270_20120222_030714_raw.all.mb56.gz 8.26MB Simrad multibeam vendor format
0271_20120222_040714_raw.all.mb56.gz 8.30MB Simrad multibeam vendor format
0272_20120222_050714_raw.all.mb56.gz 8.27MB Simrad multibeam vendor format
0273_20120222_060714_raw.all.mb56.gz 8.47MB Simrad multibeam vendor format
0274_20120222_070714_raw.all.mb56.gz 8.43MB Simrad multibeam vendor format
0275_20120222_080714_raw.all.mb56.gz 8.49MB Simrad multibeam vendor format
0276_20120222_090714_raw.all.mb56.gz 8.55MB Simrad multibeam vendor format
0277_20120222_100714_raw.all.mb56.gz 8.60MB Simrad multibeam vendor format
0278_20120222_110714_raw.all.mb56.gz 8.49MB Simrad multibeam vendor format
0279_20120222_120714_raw.all.mb56.gz 8.54MB Simrad multibeam vendor format
0280_20120222_130714_raw.all.mb56.gz 8.46MB Simrad multibeam vendor format
0281_20120222_140713_raw.all.mb56.gz 8.53MB Simrad multibeam vendor format
0282_20120222_150713_raw.all.mb56.gz 8.52MB Simrad multibeam vendor format
0283_20120222_160713_raw.all.mb56.gz 8.48MB Simrad multibeam vendor format
0284_20120222_170713_raw.all.mb56.gz 8.49MB Simrad multibeam vendor format
0285_20120222_180713_raw.all.mb56.gz 8.46MB Simrad multibeam vendor format
0286_20120222_190713_raw.all.mb56.gz 8.49MB Simrad multibeam vendor format
0287_20120222_200713_raw.all.mb56.gz 8.60MB Simrad multibeam vendor format
0288_20120222_210713_raw.all.mb56.gz 8.59MB Simrad multibeam vendor format
0289_20120222_220713_raw.all.mb56.gz 8.59MB Simrad multibeam vendor format
0290_20120222_230713_raw.all.mb56.gz 8.53MB Simrad multibeam vendor format
0291_20120223_000713_raw.all.mb56.gz 8.64MB Simrad multibeam vendor format
0292_20120223_010713_raw.all.mb56.gz 8.72MB Simrad multibeam vendor format
0293_20120223_020713_raw.all.mb56.gz 8.70MB Simrad multibeam vendor format
0294_20120223_030713_raw.all.mb56.gz 8.72MB Simrad multibeam vendor format
0295_20120223_040713_raw.all.mb56.gz 8.55MB Simrad multibeam vendor format
0296_20120223_050713_raw.all.mb56.gz 8.62MB Simrad multibeam vendor format
0297_20120223_060713_raw.all.mb56.gz 8.74MB Simrad multibeam vendor format
0298_20120223_070713_raw.all.mb56.gz 8.66MB Simrad multibeam vendor format
0299_20120223_080714_raw.all.mb56.gz 8.70MB Simrad multibeam vendor format
0300_20120223_090714_raw.all.mb56.gz 5.45MB Simrad multibeam vendor format
0301_20120223_094440_raw.all.mb56.gz 56.9KB Simrad multibeam vendor format
0302_20120223_094505_raw.all.mb56.gz 45.2KB Simrad multibeam vendor format
0303_20120223_094521_raw.all.mb56.gz 30.6KB Simrad multibeam vendor format
0305_20120223_094538_raw.all.mb56.gz 41.1KB Simrad multibeam vendor format
0306_20120223_094552_raw.all.mb56.gz 45.2KB Simrad multibeam vendor format
0307_20120223_094609_raw.all.mb56.gz 22.0KB Simrad multibeam vendor format
0308_20120223_094617_raw.all.mb56.gz 56.3KB Simrad multibeam vendor format
0309_20120223_094639_raw.all.mb56.gz 33.4KB Simrad multibeam vendor format
0310_20120223_094655_raw.all.mb56.gz 27.7KB Simrad multibeam vendor format
0311_20120223_094708_raw.all.mb56.gz 8.43MB Simrad multibeam vendor format
0312_20120223_104708_raw.all.mb56.gz 8.24MB Simrad multibeam vendor format
0313_20120223_114708_raw.all.mb56.gz 8.43MB Simrad multibeam vendor format
0314_20120223_124708_raw.all.mb56.gz 8.37MB Simrad multibeam vendor format
0315_20120223_134708_raw.all.mb56.gz 8.46MB Simrad multibeam vendor format
0316_20120223_144708_raw.all.mb56.gz 8.45MB Simrad multibeam vendor format
0317_20120223_154708_raw.all.mb56.gz 8.48MB Simrad multibeam vendor format
0318_20120223_164708_raw.all.mb56.gz 8.44MB Simrad multibeam vendor format
0319_20120223_174708_raw.all.mb56.gz 8.51MB Simrad multibeam vendor format
0320_20120223_184708_raw.all.mb56.gz 8.61MB Simrad multibeam vendor format
0321_20120223_194708_raw.all.mb56.gz 8.57MB Simrad multibeam vendor format
0322_20120223_204708_raw.all.mb56.gz 8.52MB Simrad multibeam vendor format
0323_20120223_214708_raw.all.mb56.gz 8.52MB Simrad multibeam vendor format
0324_20120223_224708_raw.all.mb56.gz 8.47MB Simrad multibeam vendor format
0325_20120223_234708_raw.all.mb56.gz 8.38MB Simrad multibeam vendor format
0326_20120224_004708_raw.all.mb56.gz 8.42MB Simrad multibeam vendor format
0327_20120224_014708_raw.all.mb56.gz 8.39MB Simrad multibeam vendor format
0328_20120224_024708_raw.all.mb56.gz 8.47MB Simrad multibeam vendor format
0329_20120224_034708_raw.all.mb56.gz 8.42MB Simrad multibeam vendor format
0330_20120224_044708_raw.all.mb56.gz 8.46MB Simrad multibeam vendor format
0331_20120224_054709_raw.all.mb56.gz 8.55MB Simrad multibeam vendor format
0332_20120224_064709_raw.all.mb56.gz 8.51MB Simrad multibeam vendor format
0333_20120224_074708_raw.all.mb56.gz 8.46MB Simrad multibeam vendor format
0334_20120224_084708_raw.all.mb56.gz 8.46MB Simrad multibeam vendor format
0335_20120224_094708_raw.all.mb56.gz 8.77MB Simrad multibeam vendor format
0336_20120224_104708_raw.all.mb56.gz 8.52MB Simrad multibeam vendor format
0337_20120224_114708_raw.all.mb56.gz 8.37MB Simrad multibeam vendor format
0338_20120224_124708_raw.all.mb56.gz 8.48MB Simrad multibeam vendor format
0339_20120224_134708_raw.all.mb56.gz 8.51MB Simrad multibeam vendor format
0340_20120224_144708_raw.all.mb56.gz 8.47MB Simrad multibeam vendor format
0341_20120224_154708_raw.all.mb56.gz 8.48MB Simrad multibeam vendor format
0342_20120224_164708_raw.all.mb56.gz 8.50MB Simrad multibeam vendor format
0343_20120224_174708_raw.all.mb56.gz 8.42MB Simrad multibeam vendor format
0344_20120224_184708_raw.all.mb56.gz 8.48MB Simrad multibeam vendor format
0345_20120224_194708_raw.all.mb56.gz 8.50MB Simrad multibeam vendor format
0346_20120224_204708_raw.all.mb56.gz 8.54MB Simrad multibeam vendor format
0347_20120224_214708_raw.all.mb56.gz 81.2KB Simrad multibeam vendor format

Metadata Files: 3

Files File Size Description
NBP1202_Multibeam.xml NGDC created ISO metadata
NBP1202.xml 12.7KB XML metadata file
mb_bag_info.tar.gz 9.8KB Additional cruise information